OK4ZAW-16 Weather Reports


time (UTC)temp
C
wind
direction
speed
KPH
gust
KPH
rain 1hr
cm
rain 24hr
cm
rain mn
cm
humidity
%
barometer
mb
20260502232105 9 0 4.8 8.0 0.00 0.00 0.00 74 1021.8
20260502231409 9 0 4.8 6.4 0.00 0.00 0.00 70 1021.8
20260502230713 9 0 4.8 8.0 0.00 0.00 0.00 65 1021.8
20260502230016 9 0 4.8 8.0 0.00 0.00 0.00 62 1021.9
20260502224623 10 0 4.8 6.4 0.00 0.00 0.00 56 1021.9
20260502222534 10 0 4.8 6.4 0.00 0.00 0.00 55 1022.2
20260502221838 10 0 3.2 6.4 0.00 0.00 0.00 57 1022.1
20260502221141 10 0 4.8 8.0 0.00 0.00 0.00 61 1022.1
20260502220445 10 0 4.8 6.4 0.00 0.00 0.00 63 1022.2
20260502215748 10 0 3.2 6.4 0.00 0.00 0.00 66 1022.2
20260502214355 10 0 3.2 8.0 0.00 0.00 0.00 67 1022.1
20260502213659 10 0 3.2 6.4 0.00 0.00 0.00 68 1022.1
20260502212306 10 0 4.8 6.4 0.00 0.00 0.00 69 1022.2
20260502211609 10 0 4.8 6.4 0.00 0.00 0.00 70 1022.3
20260502210913 10 0 4.8 8.0 0.00 0.00 0.00 71 1022.4
20260502210216 10 0 3.2 6.4 0.00 0.00 0.00 72 1022.4
20260502205520 10 0 3.2 6.4 0.00 0.00 0.00 73 1022.5
20260502204823 10 0 3.2 6.4 0.00 0.00 0.00 73 1022.5
20260502204127 10 0 3.2 6.4 0.00 0.00 0.00 73 1022.6
20260502203431 10 0 3.2 6.4 0.00 0.00 0.00 73 1022.7
20260502202734 10 0 3.2 4.8 0.00 0.00 0.00 73 1022.7
20260502202038 10 0 3.2 4.8 0.00 0.00 0.00 72 1022.8
20260502201341 10 0 3.2 4.8 0.00 0.00 0.00 71 1022.8
20260502200645 10 0 3.2 4.8 0.00 0.00 0.00 68 1022.8
20260502195948 10 0 3.2 4.8 0.00 0.00 0.00 64 1022.8
20260502195251 11 0 3.2 4.8 0.00 0.00 0.00 60 1022.9
20260502194555 11 0 1.6 3.2 0.00 0.00 0.00 59 1022.9
20260502193858 11 0 1.6 3.2 0.00 0.00 0.00 58 1022.9
20260502193202 11 0 1.6 3.2 0.00 0.00 0.00 57 1023.1
20260502192505 11 0 1.6 3.2 0.00 0.00 0.00 57 1023.1
20260502191808 11 0 1.6 1.6 0.00 0.00 0.00 57 1023.1
20260502191112 11 0 1.6 3.2 0.00 0.00 0.00 57 1023.0
20260502190415 11 0 1.6 3.2 0.00 0.00 0.00 57 1023.0
20260502185719 11 0 1.6 1.6 0.00 0.00 0.00 59 1023.0
20260502185022 11 0 1.6 1.6 0.00 0.00 0.00 61 1023.0
20260502184325 11 0 0.0 1.6 0.00 0.00 0.00 63 1023.0
20260502183629 11 0 0.0 1.6 0.00 0.00 0.00 64 1023.0
20260502182932 11 0 1.6 1.6 0.00 0.00 0.00 66 1023.0
20260502182236 11 0 1.6 3.2 0.00 0.00 0.00 67 1023.0
20260502181539 11 0 0.0 1.6 0.00 0.00 0.00 61 1022.9
20260502180842 11 0 0.0 1.6 0.00 0.00 0.00 59 1022.9
20260502180146 12 0 0.0 1.6 0.00 0.00 0.00 55 1022.8
20260502163819 17 0 0.0 1.6 0.00 0.00 0.00 41 1023.4
20260502163122 17 0 1.6 3.2 0.00 0.00 0.00 42 1023.4
20260502162425 17 0 1.6 1.6 0.00 0.00 0.00 40 1023.5
20260502161727 16 0 1.6 4.8 0.00 0.00 0.00 39 1023.6
20260502161030 17 0 1.6 4.8 0.00 0.00 0.00 39 1023.6
20260502160333 17 0 1.6 4.8 0.00 0.00 0.00 38 1023.8
20260502152146 20 0 1.6 3.2 0.00 0.00 0.00 33 1024.1
20260502151448 20 0 1.6 4.8 0.00 0.00 0.00 33 1024.2
20260502150750 20 0 1.6 3.2 0.00 0.00 0.00 33 1024.3
20260502130227 17 0 3.2 4.8 0.00 0.00 0.00 41 1025.3
20260502123437 18 0 3.2 4.8 0.00 0.00 0.00 40 1025.6
20260502122739 20 0 0.0 1.6 0.00 0.00 0.00 39 1025.5
20260502121343 18 0 1.6 3.2 0.00 0.00 0.00 40 1025.8
20260502120646 18 0 1.6 3.2 0.00 0.00 0.00 41 1025.9
20260502115250 17 0 1.6 3.2 0.00 0.00 0.00 43 1026.0
20260502114553 17 0 3.2 4.8 0.00 0.00 0.00 45 1026.1
20260502113158 17 0 1.6 4.8 0.00 0.00 0.00 44 1026.3
20260502112500 17 0 1.6 3.2 0.00 0.00 0.00 43 1026.3
20260502111803 17 0 1.6 3.2 0.00 0.00 0.00 41 1026.4
20260502111105 16 0 3.2 4.8 0.00 0.00 0.00 47 1026.5
20260502110408 16 0 3.2 8.0 0.00 0.00 0.00 45 1026.6
20260502105013 17 0 1.6 4.8 0.00 0.00 0.00 39 1026.6
20260502104315 17 0 1.6 4.8 0.00 0.00 0.00 39 1026.6
20260502103617 18 0 1.6 1.6 0.00 0.00 0.00 46 1026.6
20260502102920 17 0 1.6 1.6 0.00 0.00 0.00 51 1026.7
20260502101525 16 0 1.6 6.4 0.00 0.00 0.00 48 1026.9
20260502100827 17 0 1.6 3.2 0.00 0.00 0.00 48 1027.0
20260502100129 17 0 1.6 4.8 0.00 0.00 0.00 46 1027.0
20260502091246 16 0 1.6 3.2 0.00 0.00 0.00 43 1027.3
20260502090548 15 0 1.6 1.6 0.00 0.00 0.00 46 1027.4
20260502071433 15 0 1.6 4.8 0.00 0.00 0.00 46 1027.6
20260502070735 14 0 3.2 4.8 0.00 0.00 0.00 46 1027.6
20260502070038 14 0 1.6 4.8 0.00 0.00 0.00 47 1027.6
20260502065341 14 0 3.2 4.8 0.00 0.00 0.00 48 1027.5
20260502064644 14 0 1.6 4.8 0.00 0.00 0.00 49 1027.5
20260502063947 14 0 3.2 6.4 0.00 0.00 0.00 53 1027.4
20260502063250 14 0 1.6 6.4 0.00 0.00 0.00 53 1027.4
20260502062552 14 0 1.6 3.2 0.00 0.00 0.00 62 1027.5
20260502061855 13 0 3.2 8.0 0.00 0.00 0.00 60 1027.5
20260502061158 13 0 1.6 3.2 0.00 0.00 0.00 66 1027.4
20260502060501 13 0 1.6 3.2 0.00 0.00 0.00 72 1027.4
20260502055804 12 0 1.6 4.8 0.00 0.00 0.00 71 1027.4
20260502055108 12 0 1.6 3.2 0.00 0.00 0.00 81 1027.4
20260502054411 11 0 1.6 4.8 0.00 0.00 0.00 79 1027.4
20260502053714 11 0 1.6 4.8 0.00 0.00 0.00 81 1027.3
20260502053018 10 0 1.6 3.2 0.00 0.00 0.00 10 1027.3
20260502052321 9 0 1.6 3.2 0.00 0.00 0.00 10 1027.4
20260502051625 9 0 1.6 3.2 0.00 0.00 0.00 10 1027.4
20260502050929 8 0 1.6 3.2 0.00 0.00 0.00 10 1027.4
20260502050232 8 0 1.6 3.2 0.00 0.00 0.00 10 1027.3
20260502045536 8 0 1.6 3.2 0.00 0.00 0.00 10 1027.2
20260502044840 8 0 1.6 3.2 0.00 0.00 0.00 10 1027.2
20260502044144 8 0 1.6 3.2 0.00 0.00 0.00 10 1027.1
20260502043447 8 0 1.6 3.2 0.00 0.00 0.00 10 1027.2
20260502042751 7 0 1.6 3.2 0.00 0.00 0.00 10 1027.2
20260502042055 7 0 1.6 3.2 0.00 0.00 0.00 10 1027.2
20260502041359 7 0 1.6 1.6 0.00 0.00 0.00 10 1027.2
20260502040703 6 0 1.6 1.6 0.00 0.00 0.00 10 1027.2
20260502040007 6 0 1.6 1.6 0.00 0.00 0.00 10 1027.2
20260502035311 6 0 1.6 1.6 0.00 0.00 0.00 10 1027.2
20260502034615 6 0 1.6 1.6 0.00 0.00 0.00 10 1027.2
20260502033919 5 0 1.6 1.6 0.00 0.00 0.00 10 1027.2
20260502032528 6 0 1.6 3.2 0.00 0.00 0.00 10 1027.3
20260502031832 5 0 1.6 3.2 0.00 0.00 0.00 10 1027.3
20260502031136 6 0 1.6 3.2 0.00 0.00 0.00 10 1027.3
20260502030440 6 0 1.6 1.6 0.00 0.00 0.00 10 1027.3
20260502025744 5 0 1.6 1.6 0.00 0.00 0.00 10 1027.4
20260502025048 5 0 1.6 3.2 0.00 0.00 0.00 10 1027.4
20260502024352 5 0 1.6 3.2 0.00 0.00 0.00 10 1027.5
20260502023656 6 0 1.6 1.6 0.00 0.00 0.00 10 1027.6
20260502023000 6 0 1.6 3.2 0.00 0.00 0.00 10 1027.6
20260502021608 6 0 1.6 3.2 0.00 0.00 0.00 10 1027.6
20260502020912 6 0 1.6 3.2 0.00 0.00 0.00 10 1027.6
20260502020216 6 0 1.6 1.6 0.00 0.00 0.00 10 1027.6
20260502015520 6 0 1.6 3.2 0.00 0.00 0.00 10 1027.6
20260502014824 6 0 1.6 3.2 0.00 0.00 0.00 10 1027.6
20260502014128 6 0 1.6 4.8 0.00 0.00 0.00 10 1027.5
20260502013432 6 0 1.6 3.2 0.00 0.00 0.00 10 1027.6
20260502012737 6 0 1.6 3.2 0.00 0.00 0.00 10 1027.6
20260502012041 6 0 1.6 1.6 0.00 0.00 0.00 10 1027.7
20260502011345 6 0 1.6 1.6 0.00 0.00 0.00 10 1027.7
20260502010649 6 0 1.6 3.2 0.00 0.00 0.00 10 1027.8
20260502005953 6 0 1.6 1.6 0.00 0.00 0.00 10 1027.8
20260502005257 6 0 1.6 3.2 0.00 0.00 0.00 10 1027.9
20260502004601 6 0 1.6 3.2 0.00 0.00 0.00 10 1027.9
20260502003905 6 0 1.6 3.2 0.00 0.00 0.00 10 1028.0
20260502003209 6 0 1.6 3.2 0.00 0.00 0.00 10 1027.9
20260502002513 6 0 1.6 3.2 0.00 0.00 0.00 10 1027.9
20260502001817 6 0 1.6 3.2 0.00 0.00 0.00 10 1028.0
20260502001121 6 0 1.6 3.2 0.00 0.00 0.00 10 1028.0
20260502000425 6 0 1.6 3.2 0.00 0.00 0.00 10 1028.0
20260501235729 6 0 1.6 3.2 0.00 0.00 0.00 10 1028.0
20260501235032 6 0 1.6 3.2 0.00 0.00 0.00 10 1028.0
20260501234337 6 0 1.6 3.2 0.00 0.00 0.00 10 1027.9
20260501233640 6 0 1.6 4.8 0.00 0.00 0.00 10 1027.9
20260501232944 6 0 1.6 3.2 0.00 0.00 0.00 10 1027.9
20260501232248 6 0 1.6 3.2 0.00 0.00 0.00 10 1028.0